| time (UTC) | temp C | wind direction | speed KPH | gust KPH | rain 1hr cm | rain 24hr cm | rain mn cm | humidity % | barometer mb |
| 20260504204538 | 25 | 145 | 3.2 | 3.2 | 0.00 | 0.00 | 0.00 | 35 | 1012.9 |
| 20260504203534 | 25 | 300 | 4.8 | 4.8 | 0.00 | 0.00 | 0.00 | 37 | 1013.1 |
| 20260504202533 | 24 | 209 | 0.0 | 3.2 | 0.00 | 0.00 | 0.00 | 36 | 1013.2 |
| 20260504201533 | 24 | 188 | 3.2 | 4.8 | 0.00 | 0.00 | 0.00 | 35 | 1013.2 |
| 20260504200532 | 24 | 204 | 4.8 | 4.8 | 0.00 | 0.00 | 0.00 | 35 | 1013.4 |
| 20260504195531 | 24 | 178 | 3.2 | 4.8 | 0.00 | 0.00 | 0.00 | 34 | 1013.5 |
| 20260504194531 | 24 | 193 | 1.6 | 8.0 | 0.00 | 0.00 | 0.00 | 34 | 1013.5 |
| 20260504193529 | 23 | 185 | 3.2 | 8.0 | 0.00 | 0.00 | 0.00 | 35 | 1013.8 |
| 20260504192526 | 24 | 136 | 1.6 | 3.2 | 0.00 | 0.00 | 0.00 | 36 | 1014.0 |
| 20260504191521 | 24 | 164 | 0.0 | 1.6 | 0.00 | 0.00 | 0.00 | 35 | 1014.3 |
| 20260504190519 | 23 | 206 | 3.2 | 3.2 | 0.00 | 0.00 | 0.00 | 35 | 1014.4 |
| 20260504185518 | 23 | 149 | 4.8 | 4.8 | 0.00 | 0.00 | 0.00 | 36 | 1014.5 |
| 20260504184515 | 23 | 205 | 1.6 | 4.8 | 0.00 | 0.00 | 0.00 | 35 | 1014.8 |
| 20260504183514 | 22 | 208 | 4.8 | 4.8 | 0.00 | 0.00 | 0.00 | 38 | 1014.9 |
| 20260504182509 | 23 | 135 | 4.8 | 4.8 | 0.00 | 0.00 | 0.00 | 38 | 1015.1 |
| 20260504181509 | 23 | 178 | 3.2 | 3.2 | 0.00 | 0.00 | 0.00 | 38 | 1015.1 |
| 20260504180506 | 22 | 183 | 0.0 | 3.2 | 0.00 | 0.00 | 0.00 | 40 | 1015.4 |
| 20260504175501 | 22 | 151 | 0.0 | 3.2 | 0.00 | 0.00 | 0.00 | 37 | 1015.4 |
| 20260504174456 | 22 | 172 | 4.8 | 9.7 | 0.00 | 0.00 | 0.00 | 37 | 1015.4 |
| 20260504173455 | 22 | 161 | 1.6 | 8.0 | 0.00 | 0.00 | 0.00 | 38 | 1015.8 |
| 20260504172454 | 22 | 323 | 4.8 | 8.0 | 0.00 | 0.00 | 0.00 | 37 | 1015.9 |
| 20260504171454 | 21 | 183 | 1.6 | 3.2 | 0.00 | 0.00 | 0.00 | 39 | 1016.2 |
| 20260504170453 | 21 | 174 | 3.2 | 4.8 | 0.00 | 0.00 | 0.00 | 40 | 1015.9 |
| 20260504160442 | 20 | 167 | 0.0 | 1.6 | 0.00 | 0.00 | 0.00 | 39 | 1016.7 |
| 20260504150432 | 18 | 189 | 1.6 | 4.8 | 0.00 | 0.00 | 0.00 | 42 | 1017.4 |
| 20260504140423 | 16 | 166 | 1.6 | 3.2 | 0.00 | 0.00 | 0.00 | 46 | 1017.5 |
| 20260504130417 | 13 | 162 | 0.0 | 1.6 | 0.00 | 0.00 | 0.00 | 56 | 1017.6 |
| 20260504110345 | 9 | 179 | 0.0 | 0.0 | 0.00 | 0.00 | 0.00 | 65 | 1018.0 |
| 20260504100331 | 9 | 178 | 0.0 | 0.0 | 0.00 | 0.00 | 0.00 | 64 | 1018.0 |
| 20260504081308 | 10 | 179 | 1.6 | 1.6 | 0.00 | 0.00 | 0.00 | 57 | 1018.3 |
| 20260504080307 | 10 | 179 | 0.0 | 1.6 | 0.00 | 0.00 | 0.00 | 58 | 1018.5 |
| 20260504070246 | 11 | 181 | 0.0 | 1.6 | 0.00 | 0.00 | 0.00 | 54 | 1018.4 |
| 20260504060235 | 10 | 183 | 0.0 | 0.0 | 0.00 | 0.00 | 0.00 | 55 | 1018.9 |
| 20260504050223 | 10 | 183 | 0.0 | 0.0 | 0.00 | 0.00 | 0.00 | 54 | 1018.9 |
| 20260504045221 | 10 | 183 | 0.0 | 0.0 | 0.00 | 0.00 | 0.00 | 54 | 1018.8 |
| 20260504044216 | 9 | 183 | 0.0 | 0.0 | 0.00 | 0.00 | 0.00 | 53 | 1019.1 |
| 20260504043215 | 9 | 181 | 0.0 | 0.0 | 0.00 | 0.00 | 0.00 | 55 | 1019.2 |
| 20260504042215 | 9 | 181 | 0.0 | 0.0 | 0.00 | 0.00 | 0.00 | 60 | 1018.7 |
| 20260504041213 | 9 | 181 | 0.0 | 0.0 | 0.00 | 0.00 | 0.00 | 55 | 1018.7 |
| 20260504040213 | 9 | 181 | 0.0 | 0.0 | 0.00 | 0.00 | 0.00 | 52 | 1018.8 |
| 20260504035213 | 10 | 183 | 0.0 | 0.0 | 0.00 | 0.00 | 0.00 | 51 | 1018.9 |
| 20260504034213 | 10 | 181 | 0.0 | 0.0 | 0.00 | 0.00 | 0.00 | 49 | 1019.0 |
| 20260504033208 | 10 | 183 | 0.0 | 0.0 | 0.00 | 0.00 | 0.00 | 49 | 1019.0 |
| 20260504032208 | 10 | 183 | 0.0 | 0.0 | 0.00 | 0.00 | 0.00 | 49 | 1018.9 |
| 20260504031208 | 10 | 183 | 0.0 | 0.0 | 0.00 | 0.00 | 0.00 | 48 | 1018.8 |
| 20260504030207 | 10 | 183 | 0.0 | 0.0 | 0.00 | 0.00 | 0.00 | 46 | 1018.8 |
| 20260504025205 | 11 | 181 | 0.0 | 0.0 | 0.00 | 0.00 | 0.00 | 47 | 1018.7 |
| 20260504024205 | 10 | 183 | 0.0 | 0.0 | 0.00 | 0.00 | 0.00 | 47 | 1018.8 |
| 20260504023203 | 10 | 183 | 0.0 | 0.0 | 0.00 | 0.00 | 0.00 | 50 | 1018.8 |
| 20260504022202 | 9 | 183 | 0.0 | 0.0 | 0.00 | 0.00 | 0.00 | 53 | 1018.5 |
| 20260504021202 | 9 | 183 | 0.0 | 0.0 | 0.00 | 0.00 | 0.00 | 55 | 1018.5 |
| 20260504020201 | 9 | 183 | 0.0 | 0.0 | 0.00 | 0.00 | 0.00 | 58 | 1018.5 |
| 20260504015200 | 9 | 183 | 0.0 | 0.0 | 0.00 | 0.00 | 0.00 | 58 | 1018.3 |
| 20260504014159 | 10 | 181 | 0.0 | 0.0 | 0.00 | 0.00 | 0.00 | 56 | 1018.4 |
| 20260504013159 | 10 | 181 | 0.0 | 0.0 | 0.00 | 0.00 | 0.00 | 57 | 1018.2 |
| 20260504012154 | 10 | 183 | 0.0 | 0.0 | 0.00 | 0.00 | 0.00 | 51 | 1018.3 |
| 20260504011153 | 10 | 181 | 0.0 | 0.0 | 0.00 | 0.00 | 0.00 | 47 | 1018.1 |
| 20260504010151 | 10 | 183 | 0.0 | 0.0 | 0.00 | 0.00 | 0.00 | 47 | 1018.0 |
| 20260504005150 | 10 | 183 | 0.0 | 0.0 | 0.00 | 0.00 | 0.00 | 48 | 1018.3 |
| 20260504004145 | 11 | 183 | 0.0 | 0.0 | 0.00 | 0.00 | 0.00 | 50 | 1018.1 |
| 20260504003144 | 11 | 183 | 0.0 | 0.0 | 0.00 | 0.00 | 0.00 | 47 | 1017.9 |
| 20260504002144 | 12 | 183 | 0.0 | 0.0 | 0.00 | 0.00 | 0.00 | 48 | 1017.8 |
| 20260504001144 | 12 | 181 | 0.0 | 0.0 | 0.00 | 0.00 | 0.00 | 42 | 1018.0 |
| 20260504000139 | 13 | 183 | 0.0 | 0.0 | 0.00 | 0.00 | 0.00 | 39 | 1017.9 |
| 20260503235139 | 13 | 183 | 0.0 | 0.0 | 0.00 | 0.00 | 0.00 | 38 | 1017.7 |
| 20260503234135 | 15 | 183 | 0.0 | 0.0 | 0.00 | 0.00 | 0.00 | 37 | 1017.6 |
| 20260503233133 | 15 | 184 | 0.0 | 1.6 | 0.00 | 0.00 | 0.00 | 35 | 1017.6 |
| 20260503232133 | 15 | 178 | 1.6 | 1.6 | 0.00 | 0.00 | 0.00 | 34 | 1017.4 |
| 20260503231133 | 15 | 165 | 1.6 | 3.2 | 0.00 | 0.00 | 0.00 | 33 | 1017.4 |
| 20260503230133 | 15 | 199 | 3.2 | 3.2 | 0.00 | 0.00 | 0.00 | 33 | 1017.4 |
| 20260503225130 | 15 | 147 | 0.0 | 8.0 | 0.00 | 0.00 | 0.00 | 33 | 1017.3 |
| 20260503224126 | 16 | 151 | 0.0 | 3.2 | 0.00 | 0.00 | 0.00 | 33 | 1017.6 |
| 20260503223125 | 16 | 229 | 3.2 | 4.8 | 0.00 | 0.00 | 0.00 | 32 | 1017.5 |
| 20260503222120 | 16 | 179 | 0.0 | 1.6 | 0.00 | 0.00 | 0.00 | 32 | 1017.5 |
| 20260503221116 | 16 | 155 | 1.6 | 4.8 | 0.00 | 0.00 | 0.00 | 31 | 1017.6 |
| 20260503220115 | 16 | 86 | 4.8 | 8.0 | 0.00 | 0.00 | 0.00 | 33 | 1017.6 |
| 20260503215114 | 16 | 258 | 3.2 | 8.0 | 0.00 | 0.00 | 0.00 | 31 | 1017.6 |
| 20260503214114 | 16 | 164 | 4.8 | 8.0 | 0.00 | 0.00 | 0.00 | 31 | 1017.6 |
| 20260503213109 | 16 | 120 | 1.6 | 4.8 | 0.00 | 0.00 | 0.00 | 32 | 1017.8 |
| 20260503212104 | 16 | 215 | 3.2 | 4.8 | 0.00 | 0.00 | 0.00 | 32 | 1017.6 |
| 20260503211103 | 15 | 324 | 1.6 | 4.8 | 0.00 | 0.00 | 0.00 | 32 | 1017.7 |